QPF
0.00 0.00 0.00 0.00 0.01 0.01 0.01 0.01 0.01 0.02 0.03 0.03 0.04 0.05 0.05 0.04 0.05 0.06 0.05 0.06 0.05 0.04 0.05 0.06 0.07 0.06 0.08 0.10 0.09 0.09 0.08 0.09 0.08 0.09 0.07 0.05 0.04 0.05 0.05 0.04 0.04 0.02 0.03
0.01 0.01 0.00 0.00 0.01 0.01 0.01 0.01 0.02 0.01 0.02 0.02 0.03 0.03 0.04 0.04 0.05 0.05 0.04 0.04 0.05 0.06 0.05 0.05 0.06 0.06 0.07 0.08 0.08 0.07 0.07 0.06 0.06 0.07 0.07 0.05 0.04 0.04 0.03 0.04 0.03 0.02 0.03
0.00 0.00 0.00 0.00 0.01 0.01 0.01 0.01 0.02 0.01 0.02 0.02 0.03 0.03 0.03 0.03 0.04 0.04 0.04 0.04 0.04 0.07 0.07 0.05 0.06 0.05 0.05 0.06 0.06 0.05 0.06 0.04 0.05 0.05 0.05 0.06 0.04 0.04 0.04 0.03 0.02 0.02 0.02
0.00 0.00 0.00 0.01 0.01 0.01 0.01 0.01 0.01 0.01 0.02 0.03 0.03 0.04 0.04 0.05 0.04 0.04 0.04 0.05 0.06 0.08 0.09 0.06 0.05 0.04 0.04 0.05 0.04 0.04 0.06 0.06 0.05 0.04 0.04 0.04 0.04 0.05 0.05 0.03 0.02 0.02 0.03
0.00 0.00 0.00 0.01 0.01 0.01 0.01 0.01 0.01 0.01 0.02 0.03 0.04 0.04 0.05 0.05 0.05 0.06 0.06 0.05 0.05 0.07 0.08 0.07 0.05 0.05 0.05 0.05 0.04 0.03 0.04 0.04 0.05 0.05 0.04 0.04 0.04 0.04 0.06 0.06 0.05 0.03 0.03
0.00 0.00 0.00 0.01 0.01 0.01 0.01 0.01 0.01 0.02 0.03 0.04 0.04 0.04 0.04 0.04 0.04 0.04 0.05 0.04 0.04 0.04 0.04 0.06 0.04 0.05 0.05 0.05 0.05 0.04 0.03 0.04 0.05 0.05 0.05 0.05 0.05 0.05 0.06 0.08 0.07 0.06 0.03
0.00 0.00 0.00 0.00 0.00 0.00 0.00 0.00 0.01 0.02 0.02 0.03 0.03 0.03 0.03 0.03 0.04 0.04 0.04 0.03 0.03 0.03 0.03 0.04 0.03 0.05 0.06 0.05 0.05 0.05 0.05 0.06 0.06 0.05 0.05 0.05 0.04 0.05 0.08 0.09 0.08 0.07 0.06
0.00 0.00 0.00 0.00 0.01 0.01 0.01 0.01 0.01 0.02 0.02 0.02 0.02 0.02 0.02 0.03 0.04 0.04 0.03 0.02 0.02 0.02 0.03 0.04 0.04 0.04 0.04 0.04 0.05 0.05 0.04 0.07 0.07 0.07 0.07 0.06 0.04 0.05 0.05 0.07 0.08 0.08 0.07
0.00 0.00 0.00 0.01 0.01 0.01 0.02 0.02 0.02 0.02 0.02 0.02 0.02 0.02 0.02 0.02 0.03 0.03 0.03 0.02 0.02 0.02 0.02 0.02 0.03 0.03 0.03 0.03 0.04 0.05 0.05 0.07 0.06 0.09 0.08 0.07 0.06 0.04 0.04 0.05 0.07 0.09 0.09
0.00 0.00 0.00 0.01 0.02 0.02 0.03 0.02 0.02 0.03 0.03 0.03 0.04 0.03 0.04 0.03 0.03 0.03 0.03 0.03 0.02 0.03 0.03 0.03 0.03 0.03 0.03 0.04 0.05 0.05 0.06 0.06 0.05 0.04 0.04 0.05 0.04 0.05 0.06 0.07 0.09 0.11 0.10
0.00 0.00 0.01 0.02 0.03 0.04 0.04 0.03 0.03 0.03 0.04 0.06 0.07 0.08 0.08 0.05 0.04 0.04 0.04 0.04 0.03 0.03 0.03 0.03 0.04 0.05 0.04 0.05 0.05 0.05 0.05 0.05 0.05 0.05 0.05 0.04 0.04 0.05 0.08 0.09 0.09 0.11 0.09
0.01 0.01 0.02 0.02 0.03 0.03 0.03 0.03 0.03 0.03 0.04 0.07 0.07 0.09 0.10 0.09 0.07 0.05 0.05 0.05 0.05 0.04 0.03 0.03 0.04 0.04 0.04 0.04 0.04 0.04 0.03 0.03 0.04 0.05 0.06 0.05 0.05 0.05 0.06 0.07 0.08 0.09 0.09
0.01 0.01 0.01 0.01 0.01 0.02 0.02 0.02 0.03 0.03 0.03 0.04 0.04 0.05 0.05 0.06 0.06 0.05 0.05 0.06 0.05 0.03 0.02 0.02 0.03 0.03 0.04 0.04 0.04 0.05 0.04 0.03 0.04 0.05 0.06 0.06 0.06 0.06 0.06 0.06 0.06 0.06 0.06
0.01 0.01 0.01 0.01 0.01 0.01 0.01 0.02 0.02 0.02 0.03 0.04 0.03 0.03 0.03 0.04 0.04 0.04 0.03 0.03 0.03 0.03 0.02 0.02 0.02 0.03 0.03 0.03 0.03 0.03 0.04 0.04 0.04 0.03 0.04 0.05 0.05 0.06 0.08 0.06 0.05 0.05 0.05
0.01 0.01 0.01 0.01 0.01 0.01 0.02 0.02 0.02 0.03 0.03 0.04 0.04 0.04 0.03 0.04 0.03 0.03 0.03 0.02 0.02 0.02 0.02 0.02 0.02 0.03 0.02 0.03 0.03 0.03 0.03 0.04 0.05 0.04 0.04 0.03 0.04 0.05 0.06 0.06 0.07 0.07 0.07
0.01 0.01 0.01 0.01 0.01 0.01 0.01 0.01 0.02 0.02 0.03 0.03 0.03 0.04 0.03 0.03 0.04 0.04 0.03 0.03 0.03 0.03 0.03 0.03 0.02 0.02 0.02 0.04 0.05 0.04 0.04 0.04 0.05 0.05 0.04 0.04 0.04 0.04 0.04 0.05 0.06 0.07 0.08
0.01 0.01 0.01 0.01 0.02 0.02 0.01 0.01 0.01 0.01 0.02 0.02 0.02 0.03 0.04 0.03 0.03 0.03 0.03 0.03 0.03 0.04 0.04 0.03 0.03 0.03 0.03 0.03 0.04 0.04 0.04 0.05 0.05 0.05 0.05 0.05 0.04 0.04 0.03 0.03 0.04 0.05 0.06
0.01 0.00 0.01 0.01 0.01 0.01 0.01 0.00 0.01 0.01 0.01 0.01 0.02 0.03 0.02 0.02 0.03 0.03 0.03 0.03 0.03 0.03 0.02 0.02 0.02 0.03 0.03 0.03 0.03 0.03 0.03 0.05 0.05 0.05 0.05 0.04 0.04 0.04 0.05 0.05 0.04 0.03 0.03
0.01 0.00 0.00 0.01 0.00 0.00 0.00 0.00 0.01 0.01 0.01 0.01 0.01 0.01 0.01 0.02 0.03 0.02 0.02 0.03 0.03 0.03 0.02 0.02 0.02 0.02 0.03 0.02 0.02 0.03 0.04 0.04 0.04 0.03 0.03 0.04 0.04 0.03 0.03 0.03 0.04 0.03 0.03
0.01 0.00 0.00 0.00 0.00 0.00 0.01 0.01 0.01 0.02 0.02 0.01 0.01 0.02 0.02 0.02 0.03 0.03 0.03 0.02 0.02 0.02 0.03 0.02 0.01 0.02 0.03 0.02 0.01 0.02 0.04 0.04 0.04 0.04 0.03 0.03 0.02 0.01 0.01 0.01 0.02 0.02 0.02
0.00 0.00 0.00 0.00 0.01 0.01 0.01 0.01 0.02 0.03 0.03 0.02 0.03 0.03 0.02 0.03 0.03 0.04 0.04 0.04 0.03 0.03 0.03 0.03 0.02 0.02 0.03 0.03 0.02 0.02 0.02 0.04 0.04 0.04 0.03 0.02 0.01 0.01 0.01 0.01 0.01 0.02 0.02
0.00 0.00 0.00 0.00 0.01 0.01 0.01 0.01 0.02 0.02 0.03 0.04 0.03 0.02 0.02 0.03 0.03 0.04 0.05 0.04 0.04 0.03 0.04 0.03 0.02 0.02 0.02 0.02 0.02 0.02 0.02 0.03 0.04 0.04 0.03 0.02 0.02 0.02 0.02 0.01 0.01 0.01 0.01
0.00 0.00 0.00 0.00 0.01 0.01 0.01 0.02 0.02 0.02 0.03 0.02 0.02 0.02 0.02 0.03 0.03 0.04 0.04 0.05 0.05 0.05 0.04 0.03 0.03 0.02 0.02 0.02 0.02 0.02 0.01 0.01 0.02 0.03 0.03 0.02 0.02 0.01 0.01 0.01 0.01 0.01 0.01
0.00 0.00 0.00 0.00 0.00 0.01 0.01 0.02 0.03 0.02 0.02 0.02 0.03 0.02 0.03 0.03 0.03 0.03 0.03 0.04 0.06 0.06 0.04 0.03 0.02 0.02 0.02 0.01 0.01 0.01 0.01 0.01 0.01 0.01 0.01 0.01 0.01 0.01 0.01 0.00 0.00 0.00 0.01
0.01 0.00 0.00 0.01 0.01 0.01 0.01 0.02 0.02 0.02 0.02 0.03 0.04 0.03 0.04 0.04 0.03 0.03 0.03 0.04 0.05 0.06 0.07 0.04 0.03 0.02 0.02 0.01 0.01 0.01 0.01 0.01 0.01 0.00 0.00 0.00 0.01 0.00 0.00 0.00 0.00 0.00 0.00
0.02 0.01 0.01 0.01 0.02 0.01 0.01 0.02 0.02 0.02 0.02 0.03 0.03 0.03 0.03 0.03 0.03 0.04 0.04 0.03 0.04 0.04 0.06 0.06 0.05 0.03 0.02 0.02 0.02 0.02 0.01 0.01 0.01 0.01 0.00 0.00 0.00 0.00 0.00 0.00 0.00 0.00 0.00
MSLP
1003.28 1003.65 1004.14 1004.73 1005.40 1006.12 1006.88 1007.65 1008.41 1009.12 1009.76 1010.32 1010.78 1011.16 1011.49 1011.79 1012.11 1012.46 1012.86 1013.31 1013.80 1014.32 1014.83 1015.32 1015.79 1016.24 1016.66 1017.07 1017.48 1017.88 1018.27 1018.62 1018.91 1019.12 1019.24 1019.29 1019.27 1019.20 1019.13 1019.08 1019.08 1019.14 1019.24
1002.72 1003.03 1003.46 1003.99 1004.63 1005.34 1006.12 1006.95 1007.78 1008.58 1009.31 1009.96 1010.49 1010.92 1011.27 1011.57 1011.85 1012.17 1012.54 1012.97 1013.46 1014.00 1014.55 1015.10 1015.63 1016.12 1016.58 1017.01 1017.41 1017.80 1018.16 1018.48 1018.76 1018.98 1019.12 1019.20 1019.21 1019.17 1019.12 1019.07 1019.05 1019.08 1019.14
1002.28 1002.49 1002.82 1003.27 1003.84 1004.51 1005.28 1006.13 1007.03 1007.92 1008.75 1009.50 1010.12 1010.62 1011.01 1011.32 1011.59 1011.87 1012.21 1012.62 1013.11 1013.66 1014.25 1014.85 1015.43 1015.98 1016.47 1016.91 1017.31 1017.67 1018.00 1018.29 1018.54 1018.75 1018.91 1019.01 1019.06 1019.06 1019.04 1019.00 1018.99 1019.00 1019.04
1002.01 1002.09 1002.29 1002.61 1003.06 1003.64 1004.37 1005.21 1006.15 1007.11 1008.05 1008.91 1009.65 1010.23 1010.68 1011.02 1011.29 1011.56 1011.87 1012.26 1012.74 1013.31 1013.94 1014.59 1015.23 1015.82 1016.35 1016.81 1017.20 1017.53 1017.82 1018.07 1018.30 1018.49 1018.66 1018.78 1018.86 1018.91 1018.92 1018.91 1018.91 1018.91 1018.95
1001.94 1001.87 1001.90 1002.05 1002.33 1002.78 1003.41 1004.21 1005.15 1006.17 1007.20 1008.17 1009.02 1009.72 1010.25 1010.64 1010.94 1011.22 1011.52 1011.90 1012.38 1012.96 1013.62 1014.31 1015.00 1015.64 1016.21 1016.69 1017.08 1017.40 1017.66 1017.88 1018.08 1018.26 1018.43 1018.57 1018.68 1018.76 1018.80 1018.82 1018.83 1018.84 1018.88
1002.07 1001.85 1001.69 1001.63 1001.72 1001.98 1002.47 1003.17 1004.08 1005.12 1006.21 1007.28 1008.25 1009.07 1009.70 1010.18 1010.53 1010.84 1011.15 1011.53 1012.01 1012.60 1013.28 1014.01 1014.75 1015.43 1016.04 1016.55 1016.96 1017.27 1017.52 1017.72 1017.90 1018.08 1018.24 1018.40 1018.54 1018.65 1018.72 1018.76 1018.79 1018.80 1018.83
1002.40 1002.02 1001.67 1001.39 1001.25 1001.30 1001.60 1002.16 1002.99 1004.01 1005.14 1006.28 1007.36 1008.29 1009.05 1009.63 1010.06 1010.41 1010.75 1011.14 1011.63 1012.22 1012.92 1013.67 1014.44 1015.17 1015.82 1016.36 1016.79 1017.12 1017.38 1017.58 1017.76 1017.94 1018.12 1018.29 1018.45 1018.59 1018.69 1018.75 1018.78 1018.80 1018.81
1002.85 1002.34 1001.82 1001.33 1000.96 1000.78 1000.88 1001.27 1001.98 1002.93 1004.06 1005.25 1006.41 1007.45 1008.32 1009.01 1009.53 1009.95 1010.33 1010.75 1011.24 1011.83 1012.52 1013.29 1014.07 1014.83 1015.51 1016.09 1016.56 1016.93 1017.21 1017.43 1017.64 1017.83 1018.03 1018.22 1018.41 1018.57 1018.70 1018.78 1018.82 1018.84 1018.84
1003.37 1002.77 1002.10 1001.43 1000.85 1000.46 1000.35 1000.56 1001.13 1001.99 1003.07 1004.28 1005.49 1006.62 1007.59 1008.37 1008.99 1009.48 1009.91 1010.34 1010.83 1011.42 1012.10 1012.85 1013.64 1014.41 1015.12 1015.73 1016.24 1016.65 1016.97 1017.24 1017.48 1017.71 1017.95 1018.18 1018.40 1018.59 1018.74 1018.84 1018.90 1018.91 1018.91
1003.88 1003.22 1002.45 1001.66 1000.92 1000.36 1000.06 1000.10 1000.51 1001.26 1002.27 1003.45 1004.68 1005.85 1006.89 1007.76 1008.46 1009.01 1009.48 1009.94 1010.43 1011.00 1011.65 1012.38 1013.15 1013.92 1014.64 1015.28 1015.83 1016.29 1016.67 1016.99 1017.29 1017.57 1017.85 1018.12 1018.38 1018.61 1018.79 1018.92 1018.99 1019.02 1019.01
1004.28 1003.61 1002.82 1001.96 1001.13 1000.45 1000.01 999.91 1000.18 1000.80 1001.72 1002.83 1004.03 1005.21 1006.28 1007.20 1007.96 1008.56 1009.07 1009.54 1010.03 1010.57 1011.19 1011.89 1012.63 1013.38 1014.10 1014.76 1015.35 1015.85 1016.29 1016.68 1017.03 1017.37 1017.71 1018.03 1018.33 1018.60 1018.82 1018.99 1019.09 1019.13 1019.14
1004.54 1003.90 1003.12 1002.26 1001.41 1000.67 1000.16 999.95 1000.10 1000.61 1001.41 1002.42 1003.56 1004.70 1005.77 1006.70 1007.48 1008.12 1008.65 1009.13 1009.61 1010.14 1010.73 1011.38 1012.09 1012.81 1013.53 1014.20 1014.82 1015.37 1015.86 1016.31 1016.73 1017.13 1017.52 1017.89 1018.24 1018.56 1018.81 1019.01 1019.15 1019.23 1019.26
1004.63 1004.05 1003.33 1002.52 1001.70 1000.97 1000.44 1000.17 1000.23 1000.62 1001.30 1002.20 1003.23 1004.29 1005.31 1006.22 1007.00 1007.64 1008.19 1008.69 1009.17 1009.68 1010.25 1010.87 1011.55 1012.25 1012.95 1013.63 1014.27 1014.85 1015.40 1015.90 1016.37 1016.83 1017.27 1017.69 1018.09 1018.44 1018.75 1018.99 1019.16 1019.28 1019.34
1004.58 1004.06 1003.42 1002.70 1001.96 1001.28 1000.76 1000.48 1000.47 1000.76 1001.31 1002.08 1002.97 1003.93 1004.86 1005.71 1006.46 1007.11 1007.66 1008.17 1008.66 1009.18 1009.74 1010.35 1011.00 1011.69 1012.38 1013.06 1013.71 1014.33 1014.91 1015.46 1015.98 1016.49 1016.97 1017.44 1017.87 1018.26 1018.60 1018.88 1019.11 1019.27 1019.37
1004.45 1003.98 1003.41 1002.79 1002.15 1001.56 1001.08 1000.80 1000.74 1000.93 1001.36 1001.97 1002.72 1003.53 1004.35 1005.13 1005.83 1006.46 1007.02 1007.55 1008.07 1008.60 1009.17 1009.79 1010.44 1011.12 1011.81 1012.49 1013.16 1013.79 1014.40 1014.99 1015.55 1016.10 1016.62 1017.12 1017.59 1018.01 1018.38 1018.70 1018.96 1019.17 1019.32
1004.33 1003.87 1003.37 1002.83 1002.28 1001.77 1001.35 1001.07 1000.97 1001.07 1001.36 1001.81 1002.39 1003.05 1003.74 1004.42 1005.06 1005.67 1006.25 1006.80 1007.36 1007.93 1008.54 1009.17 1009.84 1010.53 1011.22 1011.91 1012.58 1013.23 1013.87 1014.48 1015.07 1015.65 1016.20 1016.73 1017.23 1017.68 1018.08 1018.44 1018.73 1018.98 1019.17
1004.31 1003.84 1003.37 1002.88 1002.40 1001.95 1001.56 1001.27 1001.11 1001.11 1001.26 1001.55 1001.96 1002.45 1003.00 1003.58 1004.17 1004.76 1005.34 1005.94 1006.55 1007.17 1007.82 1008.50 1009.19 1009.90 1010.60 1011.29 1011.97 1012.63 1013.28 1013.91 1014.53 1015.14 1015.72 1016.28 1016.80 1017.29 1017.72 1018.10 1018.43 1018.71 1018.94
1004.49 1003.97 1003.48 1003.01 1002.55 1002.11 1001.72 1001.39 1001.16 1001.05 1001.05 1001.18 1001.41 1001.75 1002.16 1002.64 1003.17 1003.75 1004.35 1004.99 1005.65 1006.34 1007.05 1007.77 1008.50 1009.22 1009.93 1010.63 1011.31 1011.98 1012.64 1013.29 1013.93 1014.57 1015.18 1015.78 1016.33 1016.84 1017.31 1017.72 1018.07 1018.37 1018.63
1004.91 1004.32 1003.78 1003.26 1002.77 1002.31 1001.87 1001.48 1001.16 1000.92 1000.77 1000.73 1000.80 1000.99 1001.28 1001.66 1002.14 1002.70 1003.32 1004.00 1004.73 1005.48 1006.25 1007.02 1007.78 1008.52 1009.24 1009.94 1010.63 1011.30 1011.96 1012.63 1013.30 1013.96 1014.61 1015.24 1015.83 1016.38 1016.87 1017.31 1017.68 1018.00 1018.26
1005.57 1004.89 1004.26 1003.68 1003.12 1002.58 1002.06 1001.58 1001.14 1000.76 1000.46 1000.27 1000.19 1000.23 1000.40 1000.71 1001.14 1001.68 1002.33 1003.05 1003.82 1004.63 1005.45 1006.27 1007.06 1007.82 1008.55 1009.25 1009.93 1010.60 1011.28 1011.96 1012.65 1013.34 1014.03 1014.69 1015.33 1015.91 1016.43 1016.89 1017.28 1017.61 1017.88
1006.43 1005.65 1004.92 1004.24 1003.58 1002.94 1002.31 1001.71 1001.14 1000.63 1000.19 999.84 999.62 999.54 999.61 999.84 1000.23 1000.76 1001.41 1002.16 1002.98 1003.84 1004.70 1005.55 1006.36 1007.14 1007.88 1008.58 1009.27 1009.94 1010.63 1011.33 1012.04 1012.76 1013.48 1014.19 1014.85 1015.47 1016.02 1016.49 1016.89 1017.22 1017.47
1007.40 1006.53 1005.70 1004.90 1004.13 1003.37 1002.63 1001.90 1001.20 1000.56 999.98 999.51 999.17 998.97 998.96 999.12 999.46 999.97 1000.62 1001.39 1002.23 1003.12 1004.01 1004.88 1005.72 1006.52 1007.26 1007.97 1008.67 1009.35 1010.05 1010.76 1011.50 1012.25 1013.00 1013.73 1014.43 1015.07 1015.63 1016.12 1016.51 1016.83 1017.06
1008.37 1007.43 1006.51 1005.62 1004.74 1003.87 1003.01 1002.16 1001.35 1000.58 999.89 999.30 998.85 998.56 998.46 998.56 998.85 999.33 999.96 1000.73 1001.58 1002.48 1003.39 1004.29 1005.15 1005.96 1006.72 1007.45 1008.15 1008.85 1009.57 1010.30 1011.05 1011.82 1012.59 1013.34 1014.05 1014.70 1015.27 1015.75 1016.13 1016.43 1016.64
1009.25 1008.27 1007.29 1006.32 1005.36 1004.40 1003.44 1002.50 1001.59 1000.72 999.94 999.26 998.71 998.34 998.16 998.18 998.42 998.85 999.45 1000.19 1001.03 1001.93 1002.85 1003.76 1004.64 1005.47 1006.25 1007.00 1007.73 1008.45 1009.18 1009.93 1010.70 1011.48 1012.25 1013.00 1013.71 1014.36 1014.91 1015.37 1015.73 1015.99 1016.17
1009.98 1008.99 1007.98 1006.97 1005.96 1004.95 1003.93 1002.93 1001.95 1001.01 1000.15 999.40 998.78 998.32 998.06 998.01 998.18 998.55 999.10 999.80 1000.61 1001.49 1002.40 1003.31 1004.20 1005.04 1005.85 1006.63 1007.38 1008.12 1008.87 1009.63 1010.40 1011.18 1011.94 1012.68 1013.37 1013.98 1014.51 1014.94 1015.27 1015.50 1015.65
1010.55 1009.58 1008.59 1007.58 1006.56 1005.53 1004.50 1003.47 1002.45 1001.48 1000.57 999.76 999.08 998.55 998.22 998.09 998.17 998.47 998.94 999.58 1000.33 1001.17 1002.05 1002.95 1003.83 1004.69 1005.51 1006.30 1007.07 1007.83 1008.59 1009.35 1010.11 1010.87 1011.61 1012.31 1012.96 1013.54 1014.03 1014.42 1014.72 1014.92 1015.04
Thickness
5796 5794 5791 5788 5784 5779 5775 5771 5767 5763 5758 5755 5752 5748 5745 5743 5742 5741 5738 5736 5735 5734 5733 5734 5731 5731 5731 5729 5729 5727 5726 5725 5726 5724 5723 5725 5726 5725 5724 5725 5725 5725 5724
5791 5788 5786 5785 5781 5777 5773 5769 5765 5762 5758 5754 5750 5747 5743 5741 5740 5739 5736 5734 5733 5732 5732 5730 5730 5728 5727 5725 5724 5723 5723 5723 5723 5721 5719 5717 5718 5719 5722 5721 5721 5721 5722
5788 5785 5782 5781 5779 5775 5772 5769 5763 5759 5756 5753 5749 5745 5741 5738 5737 5735 5734 5733 5731 5730 5729 5728 5727 5726 5725 5723 5721 5721 5720 5719 5720 5721 5719 5714 5714 5717 5718 5717 5718 5717 5718
5788 5785 5781 5778 5776 5774 5771 5766 5761 5757 5753 5750 5746 5742 5738 5735 5733 5733 5732 5731 5730 5728 5727 5725 5724 5723 5723 5721 5720 5720 5718 5717 5717 5717 5718 5718 5717 5713 5711 5713 5715 5714 5713
5787 5783 5781 5777 5775 5772 5768 5763 5758 5754 5750 5747 5743 5739 5737 5735 5734 5732 5730 5729 5728 5726 5725 5723 5722 5721 5721 5720 5718 5717 5716 5716 5715 5714 5715 5714 5713 5713 5709 5707 5709 5710 5712
5783 5781 5779 5775 5770 5768 5764 5759 5754 5750 5747 5744 5741 5737 5734 5732 5730 5728 5727 5726 5726 5725 5723 5722 5721 5720 5719 5717 5716 5715 5715 5714 5713 5713 5713 5712 5710 5710 5709 5706 5705 5705 5708
5778 5775 5772 5769 5766 5763 5760 5756 5751 5746 5743 5741 5739 5736 5733 5730 5728 5727 5726 5725 5724 5723 5721 5721 5719 5718 5717 5716 5714 5713 5713 5712 5710 5709 5710 5711 5711 5712 5709 5706 5704 5704 5705
5774 5772 5770 5766 5763 5760 5757 5753 5749 5744 5741 5738 5735 5733 5731 5729 5728 5725 5726 5724 5723 5722 5720 5719 5717 5716 5715 5714 5712 5712 5711 5710 5708 5707 5706 5707 5709 5709 5707 5705 5702 5699 5700
5769 5768 5766 5763 5760 5757 5753 5750 5746 5742 5739 5736 5733 5730 5728 5726 5724 5723 5723 5722 5721 5720 5718 5716 5714 5714 5713 5712 5710 5709 5708 5708 5706 5705 5704 5704 5706 5706 5705 5704 5701 5697 5693
5763 5762 5760 5758 5755 5753 5749 5746 5743 5739 5736 5733 5731 5728 5725 5723 5721 5721 5719 5718 5717 5716 5714 5713 5712 5711 5710 5709 5708 5707 5706 5704 5703 5702 5701 5701 5703 5702 5702 5701 5700 5698 5694
5757 5756 5754 5752 5750 5747 5745 5741 5738 5735 5732 5730 5728 5725 5722 5721 5719 5717 5716 5714 5713 5712 5711 5710 5709 5708 5707 5706 5705 5705 5703 5702 5701 5700 5699 5697 5697 5698 5698 5698 5697 5695 5693
5752 5750 5748 5746 5744 5741 5739 5737 5734 5731 5729 5726 5723 5721 5718 5717 5715 5714 5712 5710 5708 5708 5708 5708 5706 5705 5704 5703 5702 5701 5700 5699 5698 5697 5696 5694 5694 5692 5693 5692 5692 5690 5688
5745 5743 5741 5739 5738 5736 5734 5732 5730 5727 5725 5723 5719 5716 5715 5713 5711 5709 5708 5706 5705 5705 5705 5705 5703 5703 5702 5701 5700 5699 5698 5697 5696 5694 5693 5692 5691 5689 5689 5687 5687 5686 5686
5738 5736 5734 5732 5732 5731 5729 5727 5725 5722 5721 5719 5716 5713 5710 5709 5708 5707 5705 5704 5703 5702 5701 5701 5701 5700 5699 5698 5697 5696 5694 5693 5692 5691 5690 5689 5688 5686 5684 5684 5682 5682 5681
5730 5729 5728 5726 5726 5725 5723 5722 5719 5718 5716 5714 5712 5710 5708 5707 5705 5703 5702 5701 5699 5699 5698 5697 5697 5697 5696 5694 5693 5692 5691 5688 5687 5687 5687 5685 5683 5680 5679 5681 5679 5678 5678
5725 5724 5723 5721 5720 5719 5718 5717 5714 5713 5712 5710 5708 5706 5704 5703 5700 5699 5697 5696 5695 5694 5694 5693 5692 5691 5690 5685 5684 5685 5687 5685 5683 5682 5682 5681 5679 5675 5673 5672 5671 5672 5673
5721 5719 5718 5716 5714 5714 5713 5711 5710 5709 5707 5705 5703 5701 5699 5697 5696 5695 5692 5690 5689 5689 5688 5687 5687 5685 5681 5678 5678 5678 5681 5680 5678 5677 5677 5678 5676 5673 5671 5668 5666 5666 5665
5717 5715 5714 5712 5711 5710 5709 5707 5705 5703 5702 5700 5698 5697 5695 5693 5691 5690 5687 5685 5685 5684 5683 5682 5681 5680 5676 5672 5672 5672 5675 5675 5674 5673 5672 5670 5669 5668 5665 5665 5664 5663 5662
5715 5713 5711 5710 5707 5706 5704 5702 5699 5698 5697 5695 5694 5693 5691 5688 5686 5684 5682 5681 5680 5680 5678 5677 5675 5674 5670 5666 5666 5665 5670 5669 5668 5667 5666 5665 5663 5659 5658 5660 5659 5657 5657
5710 5708 5707 5705 5702 5700 5699 5696 5694 5693 5691 5690 5690 5688 5686 5684 5681 5680 5678 5677 5676 5674 5673 5671 5670 5669 5667 5661 5660 5659 5666 5664 5663 5662 5661 5656 5655 5652 5651 5653 5654 5652 5652
5704 5703 5701 5698 5696 5694 5692 5690 5688 5686 5686 5686 5685 5682 5680 5678 5677 5675 5673 5671 5670 5669 5667 5666 5665 5664 5662 5657 5654 5653 5659 5660 5658 5658 5657 5653 5647 5645 5645 5645 5646 5645 5645
5696 5696 5694 5691 5690 5688 5686 5683 5681 5681 5681 5680 5678 5676 5674 5674 5673 5669 5667 5666 5665 5663 5662 5660 5659 5659 5656 5653 5650 5648 5648 5649 5651 5651 5651 5647 5641 5639 5638 5639 5638 5637 5638
5689 5688 5686 5684 5682 5681 5680 5676 5675 5675 5674 5672 5671 5669 5668 5668 5667 5665 5663 5661 5660 5660 5659 5657 5656 5655 5654 5650 5645 5643 5642 5642 5644 5645 5640 5637 5635 5634 5634 5632 5632 5632 5635
5681 5680 5678 5676 5674 5674 5673 5671 5670 5668 5667 5665 5664 5663 5662 5662 5661 5661 5661 5659 5658 5657 5655 5654 5652 5651 5649 5648 5644 5641 5639 5636 5637 5638 5634 5630 5629 5629 5629 5629 5629 5630 5632
5672 5672 5670 5668 5667 5666 5665 5665 5663 5662 5660 5659 5658 5658 5658 5657 5655 5655 5654 5654 5652 5652 5649 5649 5649 5646 5643 5640 5635 5635 5636 5635 5633 5631 5632 5631 5630 5630 5630 5629 5628 5627 5627
5664 5663 5661 5660 5659 5658 5657 5657 5656 5655 5653 5653 5653 5654 5653 5652 5651 5649 5647 5643 5643 5641 5639 5638 5638 5639 5635 5631 5628 5626 5624 5623 5622 5624 5627 5627 5627 5627 5626 5625 5624 5623 5622